Other Public Products
Issued by NWS Grand Forks, ND

Home | Current Version | Previous Version | Text Only | Print | Product List | Glossary On
Versions: 1 2 3 4 5 6 7 8 9 10 11 12 13 14 15 16 17 18 19 20 21 22 23 24 25 26 27 28 29 30 31 32 33 34 35 36 37 38 39 40 41 42 43 44 45 46 47 48 49 50
000
FPUS83 KFGF 010131
OPUFGF
PRAIRIE TO PINES WEATHER ROUNDUP
NATIONAL WEATHER SERVICE EASTERN NORTH DAKOTA/GRAND FORKS ND
700 PM CST SAT JAN 31 2015

 **SATELLITE DATA USED TO AUGMENT SKY COVER AT AUTOMATED STATIONS**
 *****  WEATHER ACROSS EASTERN NORTH DAKOTA  *****

CITY           SKY/WX    TMP DP  RH WIND       PRES   REMARKS
GRAND FORKS    CLOUDY    -5 -14  65 N17       30.50R WCI -27
GRAND FORKS AF PTCLDY    -6 -15  67 N16G23    30.50R WCI -28
GRAND CITY NWS   N/A     -6 N/A N/A N13         N/A  WCI -25
BUXTON           N/A     -3 -10  71 N16         N/A  WCI -24
DEVILS LAKE    CLOUDY    -8 -18  59 NE20      30.44R WCI -32
FARGO          MOCLDY     6  -7  54 N17G25    30.38S WCI -13
WAHPETON ARPT  CLOUDY    10   0  61 N22G29    30.31R WCI  -9
$$

 *****  WEATHER ACROSS CENTRAL AND WESTERN NORTH DAKOTA  *****

CITY           SKY/WX    TMP DP  RH WIND       PRES   REMARKS
JAMESTOWN      CLOUDY     2  -8  63 N16       30.35R WCI -18
BISMARCK       LGT SNOW   3  -3  76 NE17      30.37R WCI -17
MINOT          CLOUDY    -3 -11  68 N15       30.45R WCI -23
MINOT AFB      MOCLDY    -4 -11  71 N15       30.46S WCI -25
GARRISON         N/A     -2  -7  79 NE10      30.39R WCI -19
WILLISTON      LGT SNOW   1  -5  75 NE14      30.42R WCI -17
DICKINSON      LGT SNOW   5   0  79 NE16      30.24R VSB 3/4 WCI -14
HETTINGER      LGT SNOW  10   6  84 NE15      30.21R VSB 3/4 WCI  -7
$$

 *****  OTHER OBSERVATIONS NORTHEAST NORTH DAKOTA  *****

CITY           SKY/WX    TMP DP  RH WIND       PRES   REMARKS
WALHALLA         N/A     -9 -17  70 N14       30.58R WCI -31
LANGDON        NOT AVBL
CAVALIER       FAIR      -8 -17  65 N14G22    30.56R WCI -28
GRAFTON        NOT AVBL
CANDO          CLOUDY    -9 -17  70 N18G24    30.49R WCI -33
FORT TOTTEN      N/A     -7 -18  59 N7        29.95S WCI -21
ROLLA          FAIR      -9 -17  70 N17       30.46S WCI -33
RUGBY          FAIR      -6 -17  59 NE14      30.48R WCI -26
 ***** THE ABOVE OBSERVATIONS ARE NON NWS ARE NOT QUALITY
        CONTROLLED AND MAY MIS-REPORT RAIN FOR SNOW...
$$

 *****  OTHER OBSERVATIONS SOUTHEAST NORTH DAKOTA *****

CITY           SKY/WX    TMP DP  RH WIND       PRES   REMARKS
COOPERSTOWN    NOT AVBL
VALLEY CITY    CLOUDY     0  -9  65 NE21      30.36S WCI -23
OAKES            N/A      5  -4  66 N24G31    30.30R WCI -17
GWINNER        CLOUDY     7  -4  61 N31       30.31S WCI -17
SHEYENNE NWR     N/A      3  -8  59 N18       29.95S WCI -17
BUFFALO        NOT AVBL
WYNDMERE         N/A      7  -4  61 N15         N/A  WCI -11
 ***** THE ABOVE OBSERVATIONS ARE NON NWS ARE NOT QUALITY
       CONTROLLED AND MAY MIS-REPORT RAIN FOR SNOW...
$$

  *****  WEATHER ACROSS NORTHERN MINNESOTA  *****

CITY           SKY/WX    TMP DP  RH WIND       PRES   REMARKS
FLAG ISLAND    MOCLDY    -8 -15  71 N9        30.48R WCI -25
WARROAD        MOCLDY    -6 -15  65 N9        30.47S WCI -22
ROSEAU         MOCLDY    -4 -13  65 N10       30.48R WCI -21
HALLOCK        MOCLDY    -8 -18  59 N16       30.53R WCI -30
THF RVR FALLS  MOCLDY     0  -9  65 N13       30.43R WCI -18
HALSTAD          N/A      1 -11  57 N20         N/A  WCI -21
FOSSTON        MOCLDY     1  -8  66 N15       30.38R WCI -18
BAUDETTE       MOCLDY    -6 -14  68 N8        30.43R WCI -21
WASKISH        MOCLDY    -4 -11  71 CALM      30.41S
CROOKSTON      PTCLDY     0  -9  65 N16       30.47S WCI -21
$$
  *****  WEATHER ACROSS CENTRAL AND WEST MINNESOTA  *****

CITY           SKY/WX    TMP DP  RH WIND       PRES   REMARKS
BEMIDJI        MOCLDY     1  -6  71 N8        30.34S WCI -13
PARK RAPIDS    MOCLDY     7  -3  64 N9        30.29S WCI  -7
WADENA         MOCLDY    10   0  61 NE13      30.27R WCI  -5
DETROIT LAKES  CLOUDY    10  -4  52 NE15      30.30S WCI  -6
MOORHEAD       CLOUDY     7  -4  61 N18G25    30.37S WCI -12
FERGUS FALLS   CLOUDY    12   0  57 N12       30.31R WCI  -2
ELBOW LAKE     MOCLDY    17   1  49 NE16      30.23S WCI   1
MORRIS MN      CLOUDY    21   3  45 NE17G25   30.21R WCI   7
STAPLES        MOCLDY    10   0  61 NE10G16   30.26S WCI  -3
WHEATON        CLOUDY    12   1  62 N13G25    30.28S WCI  -3
$$
  *****  WEATHER ELSEWHERE ACROSS MINNESOTA  *****

CITY           SKY/WX    TMP DP  RH WIND       PRES   REMARKS
DULUTH         MOCLDY    11  -4  51 N10       30.27R WCI  -3
INTRNTL FALLS  PTCLDY    -4 -15  59 NE6       30.41R WCI -16
ELY            PTCLDY     0  -9  65 CALM      30.35R
CLOQUET        MOCLDY    10  -2  56 N12       30.28S WCI  -4
BRAINERD       PTCLDY    16   2  54 NE12      30.26S WCI   3
HIBBING        PTCLDY     7  -7  52 N9        30.32R WCI  -7
ALEXANDRIA     CLOUDY    18   0  45 NE16      30.21R WCI   3
SAINT CLOUD    CLOUDY    24   7  48 NE10      30.20F WCI  14
MINNEAPOLIS    CLOUDY    27  15  61 NE13      30.19S WCI  16
$$

  *****  WEATHER ACROSS SOUTH DAKOTA  *****

CITY           SKY/WX    TMP DP  RH WIND       PRES   REMARKS
SIOUX FALLS    LGT SNOW  25  23  92 NE16      30.05S VSB 3/4 WCI  12
BROOKINGS      NOT AVBL
WATERTOWN      CLOUDY    15   6  67 NE21G28   30.12R WCI  -2
HURON          CLOUDY    20  14  77 NE15G23   30.15R WCI   6
SISSETON         N/A     11   1  64 N24       30.25R WCI  -9
ABERDEEN       CLOUDY    11  -1  58 NE24G30   30.24R WCI  -9
MITCHELL       LGT SNOW  24  22  91 NE15      30.10S FOG     WCI  11
PIERRE         CLOUDY    16   5  62 NE20      30.14R WCI  -1
MOBRIDGE       CLOUDY    14   0  53 NE15      30.20R WCI  -1
RAPID CITY     FOG       20  18  92 E10       30.04R VSB<1/4 WCI   9
$$

  *****  SOME WEATHER IN NEARBY STATES *****

CITY           SKY/WX    TMP DP  RH WIND       PRES   REMARKS
GLASGOW MT     LGT SNOW   7   0  73 NE9       30.40R WCI  -7
GREAT FALLS MT CLOUDY     7   4  87 NW5       30.33R WCI  -2
CHEYENNE WY    CLOUDY    31  27  85 N10       29.81R WCI  22
SCOTTSBLUFF NE CLOUDY    31  28  89 NE12      29.89R WCI  22
OMAHA NE       LGT SNOW  33  32  96 SE6       29.95F FOG
DES MOINES IA  LGT SNOW  34  32  92 SE7       30.03F VSB 1
DAVENPORT IA   LGT SNOW  32  30  92 SE6       30.12F FOG
CHICAGO IL     CLOUDY    34  28  79 CALM      30.16F
EAU CLAIRE WI  CLOUDY    25  15  66 NE10      30.20S WCI  15
LA CROSSE WI   NOT AVBL
$$

  *****  SOME NATIONAL WEATHER *****

CITY           SKY/WX    TMP DP  RH WIND       PRES   REMARKS
LA GUARDIA NY  CLEAR     22   7  52 NW21G26   30.19R WCI   6
RALEIGH NC     MOCLDY    36  12  37 CALM      30.30S
ATLANTA GA     MOCLDY    50  19  29 E5        30.29S
NEW ORLEANS LA MOCLDY    56  49  77 E9        30.17F
OKLAHOMA CITY  LGT RAIN  42  39  89 S9        29.92F FOG
ALBUQUERQUE NM MOCLDY    40  35  83 CALM      29.90R
SALT LAKE CITY PTCLDY    41  29  62 W8        30.09R
LOS ANGELES CA PTCLDY    61  55  81 W8        29.90F
BOISE ID       CLEAR     43  30  60 NW8       30.14R
SEATTLE WA     CLOUDY    43  39  86 CALM      30.18R
$$

*** WEATHER ACROSS MANITOBA...SASKATCHEWAN AND ONTARIO ***
                ***ONTARIO***

CITY           SKY/WX    TMP DP  RH WIND       PRES   REMARKS
GERALDTON      CLEAR    -18 -22  83 CALM      30.36R
THUNDER BAY    CLEAR      0 -13  55 N7        30.45R WCI -13
SIOUX LOOKOUT  CLEAR    -17 -20  83 NW2       30.43R
TORONTO        CLOUDY    25  19  80 SW12      30.16S WCI  14
BIG TROUT LK   CLEAR    -20 -27  69 W9        30.39R WCI -40
PICKLE LAKE    CRYSTALS -17 -24  70 W7        30.37S WCI -33
DRYDEN         CLEAR    -11 -18  70 N5        30.43R WCI -23
KENORA         CLEAR    -11 -18  70 N7        30.45R WCI -26
$$
                *** MANITOBA***

CITY           SKY/WX    TMP DP  RH WIND       PRES   REMARKS
BRANDON        PTCLDY   -17 -26  63 E5        30.56S WCI -29
DAUPHIN        CLEAR    -17 -26  63 W7        30.62S WCI -33
ISLAND LAKE    CLEAR    -20 -27  69 W8        30.51S WCI -39
PILOT MOUND      N/A    -13 -22  64 N13         N/A  WCI -34
THE PAS        MOCLDY   -13 -24  58 W10       30.61F WCI -32
THOMPSON       CRYSTALS -20 -29  63 W7        30.50F WCI -37
WINNIPEG       CLEAR    -13 -22  64 N7        30.61R WCI -29
LYNN LAKE      CLEAR    -22 -29  69 W9        30.46F WCI -42
CHURCHILL      CLEAR    -22 -29  69 NW15G26   30.36S WCI -48
GILLAM         CLEAR    -18 -27  63 W15G22    30.43F WCI -43
$$
                ***SASKATCHEWAN***

CITY           SKY/WX    TMP DP  RH WIND       PRES   REMARKS
ESTEVAN        CLOUDY    -6 -17  59 E12       30.48R WCI -24
KINDERSLEY     PTCLDY    -8 -13  77 E5        30.49S WCI -19
LLOYDMINSTER   PTCLDY    -4 -11  71 SW7       30.47S WCI -18
PRINCE ALBERT  CLOUDY   -11 -22  58 W2        30.60S
REGINA         CLOUDY    -4 -13  65 N9        30.52R WCI -20


USA.gov is the U.S. government's official web portal to all federal, state and local government web resources and services.